Hourly Weather Solden

Today, 14 August, Friday

Time Temperature Precipitation Wind Pressure Humidity
00:00 +8°C° 0.1 mm 1 mps 584 mmHg 89%
01:00 +8°C° 0 mm 1 mps 585 mmHg 89%
02:00 +8°C° 0.1 mm 1 mps 584 mmHg 89%
03:00 +8°C° 0.1 mm 1 mps 584 mmHg 89%
04:00 +7°C° 0.1 mm 1 mps 583 mmHg 89%
05:00 +8°C° 0.3 mm 1 mps 584 mmHg 88%
06:00 +10°C° 0.3 mm 1 mps 585 mmHg 86%
07:00 +11°C° 0.3 mm 1 mps 586 mmHg 85%
08:00 +11°C° 0.5 mm 1 mps 586 mmHg 85%
09:00 +12°C° 0.5 mm 1 mps 586 mmHg 85%
10:00 +11°C° 0.5 mm 0 mps 586 mmHg 85%
11:00 +12°C° 0.9 mm 0 mps 586 mmHg 83%
12:00 +12°C° 0.9 mm 0 mps 586 mmHg 80%
13:00 +13°C° 0.9 mm 0 mps 586 mmHg 78%
14:00 +14°C° 1.1 mm 1 mps 586 mmHg 79%
15:00 +13°C° 1.1 mm 1 mps 586 mmHg 79%
16:00 +13°C° 1.1 mm 1 mps 585 mmHg 80%
17:00 +12°C° 0.5 mm 1 mps 585 mmHg 83%
18:00 +11°C° 0.5 mm 1 mps 585 mmHg 85%
19:00 +10°C° 0.5 mm 1 mps 585 mmHg 88%
20:00 +9°C° 0 mm 1 mps 584 mmHg 88%
21:00 +8°C° 0 mm 1 mps 584 mmHg 88%
22:00 +8°C° 0 mm 1 mps 584 mmHg 89%
23:00 +7°C° 0 mm 1 mps 584 mmHg 88%

Tomorrow, 15 August, Saturday

Time Temperature Precipitation Wind Pressure Humidity
00:00 +7°C° 0 mm 1 mps 584 mmHg 87%
01:00 +7°C° 0 mm 1 mps 584 mmHg 86%
02:00 +7°C° 0 mm 1 mps 583 mmHg 85%
03:00 +7°C° 0 mm 1 mps 583 mmHg 85%
04:00 +7°C° 0 mm 1 mps 583 mmHg 84%
05:00 +8°C° 0 mm 1 mps 584 mmHg 81%
06:00 +9°C° 0 mm 1 mps 584 mmHg 79%
07:00 +10°C° 0 mm 1 mps 585 mmHg 77%
08:00 +12°C° 0 mm 1 mps 586 mmHg 69%
09:00 +14°C° 0 mm 1 mps 587 mmHg 61%
10:00 +16°C° 0 mm 1 mps 588 mmHg 53%
11:00 +18°C° 0 mm 1 mps 588 mmHg 51%
12:00 +19°C° 0 mm 1 mps 588 mmHg 49%
13:00 +20°C° 0 mm 1 mps 588 mmHg 46%
14:00 +19°C° 0.1 mm 1 mps 588 mmHg 48%
15:00 +19°C° 0.1 mm 1 mps 588 mmHg 49%
16:00 +19°C° 0.1 mm 1 mps 588 mmHg 50%
17:00 +16°C° 0.3 mm 1 mps 587 mmHg 62%
18:00 +14°C° 0.3 mm 1 mps 586 mmHg 74%
19:00 +12°C° 0.3 mm 1 mps 585 mmHg 85%
20:00 +11°C° 0 mm 1 mps 584 mmHg 87%
21:00 +10°C° 0 mm 1 mps 584 mmHg 88%
22:00 +9°C° 0 mm 1 mps 584 mmHg 90%
23:00 +8°C° 0 mm 1 mps 584 mmHg 90%

Day after tomorrow, 16 August, Sunday

Time Temperature Precipitation Wind Pressure Humidity
00:00 +8°C° 0 mm 1 mps 583 mmHg 90%
01:00 +8°C° 0 mm 1 mps 583 mmHg 91%
02:00 +7°C° 0 mm 1 mps 583 mmHg 91%
03:00 +7°C° 0 mm 1 mps 583 mmHg 91%
04:00 +7°C° 0 mm 1 mps 583 mmHg 91%
05:00 +7°C° 0 mm 0 mps 583 mmHg 88%
06:00 +9°C° 0 mm 0 mps 584 mmHg 85%
07:00 +10°C° 0 mm 0 mps 585 mmHg 81%
08:00 +12°C° 0 mm 0 mps 585 mmHg 75%
09:00 +15°C° 0 mm 1 mps 586 mmHg 68%
10:00 +18°C° 0 mm 1 mps 587 mmHg 61%
11:00 +18°C° 0.4 mm 1 mps 587 mmHg 61%
12:00 +18°C° 0.4 mm 1 mps 587 mmHg 60%
13:00 +18°C° 0.4 mm 2 mps 587 mmHg 59%
14:00 +17°C° 0.8 mm 2 mps 587 mmHg 62%
15:00 +17°C° 0.8 mm 2 mps 587 mmHg 65%
16:00 +18°C° 0.8 mm 1 mps 586 mmHg 67%
17:00 +15°C° 1.2 mm 1 mps 586 mmHg 74%
18:00 +14°C° 1.2 mm 1 mps 585 mmHg 81%
19:00 +12°C° 1.2 mm 1 mps 584 mmHg 88%
20:00 +11°C° 0.6 mm 1 mps 584 mmHg 89%
21:00 +10°C° 0.6 mm 1 mps 584 mmHg 89%
22:00 +10°C° 0.6 mm 1 mps 584 mmHg 89%
23:00 +9°C° 0.1 mm 1 mps 583 mmHg 90%

17 August, Monday

Time Temperature Precipitation Wind Pressure Humidity
00:00 +9°C° 0.1 mm 1 mps 583 mmHg 90%
01:00 +8°C° 0.1 mm 1 mps 582 mmHg 90%
02:00 +8°C° 0 mm 1 mps 582 mmHg 90%
03:00 +8°C° 0 mm 1 mps 582 mmHg 90%
04:00 +7°C° 0 mm 1 mps 582 mmHg 90%
05:00 +8°C° 0 mm 1 mps 582 mmHg 89%
06:00 +9°C° 0 mm 0 mps 583 mmHg 87%
07:00 +10°C° 0 mm 0 mps 583 mmHg 86%
08:00 +12°C° 0.2 mm 1 mps 584 mmHg 80%
09:00 +14°C° 0.2 mm 1 mps 585 mmHg 75%
10:00 +15°C° 0.2 mm 1 mps 586 mmHg 70%
11:00 +15°C° 0.5 mm 1 mps 586 mmHg 69%
12:00 +16°C° 0.5 mm 2 mps 586 mmHg 67%
13:00 +16°C° 0.5 mm 2 mps 586 mmHg 66%
14:00 +16°C° 0.8 mm 2 mps 585 mmHg 68%
15:00 +15°C° 0.8 mm 2 mps 585 mmHg 71%
16:00 +15°C° 0.8 mm 2 mps 585 mmHg 74%
17:00 +14°C° 0.6 mm 1 mps 584 mmHg 79%
18:00 +12°C° 0.6 mm 1 mps 584 mmHg 85%
19:00 +10°C° 0.6 mm 0 mps 583 mmHg 91%
20:00 +10°C° 0.5 mm 0 mps 584 mmHg 91%
21:00 +10°C° 0.5 mm 1 mps 584 mmHg 91%
22:00 +10°C° 0.5 mm 1 mps 584 mmHg 91%
23:00 +9°C° 0.8 mm 1 mps 583 mmHg 91%

18 August, Tuesday

Time Temperature Precipitation Wind Pressure Humidity
00:00 +8°C° 0.8 mm 2 mps 583 mmHg 91%
01:00 +7°C° 0.8 mm 2 mps 583 mmHg 91%
02:00 +7°C° 0.4 mm 2 mps 583 mmHg 92%
03:00 +6°C° 0.4 mm 2 mps 582 mmHg 92%
04:00 +6°C° 0.4 mm 2 mps 582 mmHg 92%
05:00 +6°C° 0 mm 2 mps 582 mmHg 90%
06:00 +6°C° 0 mm 2 mps 582 mmHg 88%
07:00 +7°C° 0 mm 2 mps 583 mmHg 86%
08:00 +9°C° 0 mm 2 mps 584 mmHg 75%
09:00 +12°C° 0 mm 1 mps 584 mmHg 65%
10:00 +14°C° 0 mm 1 mps 585 mmHg 54%
11:00 +15°C° 0.1 mm 1 mps 586 mmHg 52%
12:00 +16°C° 0.1 mm 1 mps 586 mmHg 50%
13:00 +18°C° 0.1 mm 1 mps 586 mmHg 48%
14:00 +16°C° 0.5 mm 1 mps 586 mmHg 52%
15:00 +15°C° 0.5 mm 1 mps 585 mmHg 57%
16:00 +15°C° 0.5 mm 1 mps 585 mmHg 62%
17:00 +13°C° 0.7 mm 1 mps 584 mmHg 69%
18:00 +11°C° 0.7 mm 1 mps 584 mmHg 77%
19:00 +10°C° 0.7 mm 1 mps 583 mmHg 84%
20:00 +9°C° 0.6 mm 1 mps 583 mmHg 86%
21:00 +8°C° 0.6 mm 1 mps 583 mmHg 88%
22:00 +7°C° 0.6 mm 1 mps 583 mmHg 90%
23:00 +7°C° 0 mm 1 mps 583 mmHg 90%

19 August, Wednesday

Time Temperature Precipitation Wind Pressure Humidity
00:00 +5°C° 0 mm 2 mps 582 mmHg 90%
01:00 +5°C° 0 mm 2 mps 582 mmHg 90%
02:00 +4°C° 0 mm 2 mps 582 mmHg 90%
03:00 +4°C° 0 mm 2 mps 582 mmHg 89%
04:00 +5°C° 0 mm 1 mps 581 mmHg 89%
05:00 +6°C° 0 mm 1 mps 582 mmHg 86%
06:00 +7°C° 0 mm 1 mps 582 mmHg 84%
07:00 +7°C° 0 mm 1 mps 583 mmHg 81%
08:00 +10°C° 0 mm 1 mps 584 mmHg 72%
09:00 +12°C° 0 mm 1 mps 585 mmHg 64%
10:00 +14°C° 0 mm 1 mps 586 mmHg 55%
11:00 +15°C° 0 mm 1 mps 586 mmHg 53%
12:00 +15°C° 0 mm 1 mps 586 mmHg 51%
13:00 +16°C° 0 mm 2 mps 586 mmHg 48%
14:00 +16°C° 0.1 mm 2 mps 586 mmHg 52%
15:00 +15°C° 0.1 mm 2 mps 585 mmHg 56%
16:00 +15°C° 0.1 mm 2 mps 585 mmHg 59%
17:00 +13°C° 0.1 mm 1 mps 584 mmHg 69%
18:00 +12°C° 0.1 mm 1 mps 583 mmHg 80%
19:00 +10°C° 0.1 mm 1 mps 582 mmHg 90%
20:00 +9°C° 0 mm 1 mps 582 mmHg 91%
21:00 +7°C° 0 mm 0 mps 582 mmHg 93%
22:00 +6°C° 0 mm 0 mps 582 mmHg 94%
23:00 +6°C° 0 mm 0 mps 582 mmHg 94%
Show more